Temperature
18 18 18 18 18 18 18 18 18 18 18 18 18 18 18 18 18 18 18 18 18 18 18 18 18 18 18 18 18 18 17 17 17 17 17 17 17 17 17 17 16 16 16
18 18 18 18 18 18 18 18 18 18 18 18 18 18 18 18 18 18 18 18 18 18 18 18 18 18 18 18 18 18 17 17 17 17 17 17 17 17 17 17 17 16 16
18 18 18 18 18 18 18 18 18 18 18 18 18 18 18 18 18 18 18 18 18 18 18 18 18 18 18 18 18 18 18 17 17 17 17 17 17 17 17 17 17 16 16
18 18 18 18 18 18 18 18 18 18 18 18 18 18 18 18 18 18 18 18 18 18 18 18 18 18 18 18 18 18 18 18 17 17 17 17 17 17 17 17 17 17 16
18 18 18 18 18 18 18 18 18 18 18 18 18 18 18 18 18 18 18 18 18 18 18 18 18 18 18 18 18 18 18 17 17 17 17 17 17 17 17 17 17 17 17
18 18 18 18 18 18 18 18 18 18 18 18 18 18 18 18 18 18 18 18 18 18 18 18 18 18 18 18 18 18 18 17 17 17 17 17 17 17 17 17 17 17 17
18 18 18 18 18 18 18 18 18 18 18 18 18 18 18 18 18 18 18 18 18 18 18 18 17 17 17 18 18 18 18 18 18 17 17 17 17 17 17 17 17 17 16
18 18 18 18 18 18 18 18 18 17 18 18 18 18 19 19 18 18 18 18 18 18 18 18 17 17 17 17 18 18 18 18 18 18 17 17 17 17 17 17 17 17 17
18 18 18 18 18 18 18 18 18 17 18 18 17 18 18 19 19 19 18 18 18 18 18 18 17 17 17 17 17 17 18 17 17 17 17 17 17 17 17 17 17 17 17
18 18 18 18 18 18 17 17 17 17 17 17 17 17 17 18 18 18 18 18 18 17 17 18 18 17 17 17 17 17 17 17 17 17 17 17 17 17 17 17 17 17 17
18 17 17 17 17 17 17 17 17 17 17 17 17 17 17 17 17 18 18 18 18 18 17 17 17 17 17 17 17 17 18 17 17 17 17 17 17 17 17 17 17 17 17
17 17 17 17 17 17 17 17 17 17 17 17 17 17 17 17 17 17 18 18 18 18 17 17 17 17 17 17 17 17 17 17 17 17 17 17 17 17 17 17 17 17 17
17 17 17 17 17 17 17 17 17 17 17 17 17 17 17 17 17 17 17 17 17 18 17 17 17 17 17 17 17 17 17 17 17 17 17 17 17 17 17 17 16 17 16
17 17 17 17 17 17 17 17 17 17 17 17 17 17 17 17 17 17 17 17 17 18 18 17 17 17 17 17 17 17 17 17 17 17 17 16 16 16 17 16 16 16 16
17 17 17 17 17 17 17 17 17 17 16 16 16 16 16 16 16 16 16 17 17 17 18 18 17 17 17 17 17 17 17 17 17 17 16 16 16 16 16 16 16 16 16
18 17 17 17 17 17 17 17 16 16 16 16 16 16 16 16 16 16 16 16 16 16 17 17 17 17 16 16 16 16 16 16 16 17 16 16 16 16 16 16 16 16 16
17 17 17 17 17 16 16 17 16 16 16 16 16 16 16 16 16 16 16 16 16 16 16 16 16 16 16 16 16 16 16 16 16 16 16 16 16 16 16 16 16 15 15
17 17 17 17 17 16 16 16 16 16 16 16 15 15 15 16 16 16 16 15 16 15 15 15 16 16 15 15 15 15 15 15 15 15 16 16 15 15 15 15 15 15 15
17 16 16 16 17 16 16 16 16 16 16 15 15 15 15 15 15 15 15 15 15 15 15 15 15 15 15 15 15 15 15 15 15 15 15 15 15 15 15 15 15 15 15
16 16 16 16 16 16 16 16 16 15 15 15 15 15 15 15 15 15 15 15 15 15 14 15 15 15 15 15 14 14 14 15 14 15 14 15 15 15 15 15 15 15 15
16 16 16 15 15 15 15 15 16 15 15 15 15 15 15 15 15 15 14 14 14 14 14 14 15 15 15 14 14 14 14 14 14 14 14 14 14 14 14 14 14 14 14
16 15 15 15 15 15 15 15 15 15 15 15 14 14 14 14 14 14 14 14 14 14 14 14 14 14 14 14 14 14 14 14 14 14 13 14 14 14 14 14 14 14 14
15 15 15 15 15 15 15 15 15 15 15 14 14 14 14 14 14 14 14 14 14 14 14 14 13 13 13 13 13 13 13 13 13 13 13 13 13 13 13 13 14 14 14
15 15 15 15 15 15 15 15 15 14 14 14 14 14 14 14 14 14 14 14 14 13 13 13 13 13 13 13 13 13 13 13 13 13 13 13 13 13 13 13 13 13 13
15 15 15 15 14 14 15 15 15 14 14 14 14 14 14 13 14 14 13 13 13 13 13 13 13 13 13 13 13 12 12 12 13 13 13 12 13 13 13 13 13 13 13
15 15 14 14 14 14 14 14 14 14 14 14 14 14 14 14 13 13 13 13 13 13 13 13 13 13 13 12 12 12 12 12 13 13 12 12 12 12 13 13 13 13 12
Wind_Speed
1 1 1 1 1 1 2 3 3 3 4 5 5 5 4 4 4 3 4 8 9 9 9 10 10 11 12 12 12 12 12 11 11 12 12 12 12 12 12 12 11 11 11
1 1 1 1 2 2 2 3 3 3 4 4 4 4 5 5 5 5 5 7 10 11 10 11 11 11 12 11 11 11 11 11 11 11 11 11 11 12 12 12 12 12 12
2 2 2 2 2 2 2 3 3 3 4 4 4 4 5 5 5 5 6 6 7 12 13 11 11 12 11 11 11 11 10 11 11 11 11 11 11 11 11 12 12 12 11
3 3 3 2 2 2 2 2 3 3 3 3 3 4 4 4 5 5 5 6 6 6 9 11 10 11 11 11 11 11 11 10 10 10 10 11 11 11 11 11 12 12 12
4 4 3 2 3 2 2 3 1 2 2 3 3 3 3 3 4 4 4 5 4 4 5 7 10 10 10 10 11 11 12 12 11 11 11 10 11 11 12 12 12 13 13
4 4 3 3 3 2 2 2 2 2 2 2 2 2 2 2 3 3 4 3 4 4 4 4 5 8 10 10 10 10 11 12 12 13 12 12 12 12 12 12 13 14 14
3 4 4 3 3 3 3 3 2 2 2 1 1 2 2 2 2 3 3 3 3 3 4 4 4 4 6 11 10 10 10 11 11 13 13 13 13 13 13 13 13 14 14
3 4 4 4 3 2 2 2 2 2 1 0 1 1 1 2 3 3 3 4 3 3 4 5 5 5 6 6 7 10 10 10 10 11 12 12 13 13 13 14 14 14 14
3 3 3 3 2 2 2 2 2 3 2 1 1 1 2 1 2 3 3 4 3 3 4 4 6 6 8 7 6 9 10 9 10 11 11 11 12 13 13 13 13 13 13
2 2 2 2 2 2 1 3 2 2 3 2 2 2 2 2 2 2 3 2 3 4 5 5 5 6 7 7 6 5 8 9 10 10 10 11 11 11 12 12 11 11 11
1 2 2 2 2 2 2 2 2 3 3 3 3 2 3 3 4 4 4 4 4 4 4 5 5 5 6 6 6 5 6 8 9 9 10 10 11 11 11 11 11 10 10
1 1 2 2 2 2 2 3 3 3 3 3 4 4 3 3 3 4 5 5 5 4 5 4 5 5 5 6 6 3 6 8 9 9 10 10 10 10 10 10 10 10 11
2 1 2 2 2 2 3 3 3 4 4 4 4 4 4 4 4 5 5 5 6 5 4 4 4 5 5 5 5 4 6 8 9 10 10 9 9 9 9 9 10 10 10
2 2 2 2 3 3 3 3 4 3 3 4 4 4 4 4 4 5 5 5 6 6 5 4 3 4 5 5 4 6 6 8 9 10 10 10 9 9 9 10 10 10 10
2 2 2 2 2 2 3 3 3 3 3 4 4 4 4 4 4 4 5 5 6 7 6 4 4 4 5 5 4 6 6 6 8 9 9 9 9 9 10 10 10 10 10
2 2 3 3 2 2 2 3 3 3 3 3 4 4 5 5 4 5 5 5 6 7 7 5 5 5 4 5 4 5 6 6 9 10 10 9 9 9 9 9 9 9 10
3 3 3 3 3 2 2 3 3 3 4 4 5 5 6 5 5 5 5 5 6 6 7 7 5 5 5 6 4 5 6 6 6 9 10 9 9 9 9 9 9 9 9
4 3 3 3 3 3 3 4 4 4 5 5 5 5 6 5 6 6 5 6 6 6 7 8 6 5 5 5 5 6 6 5 5 6 9 10 10 10 9 9 9 8 9
4 4 4 4 4 4 4 4 5 5 5 6 6 6 6 6 6 5 6 6 6 6 6 7 7 5 5 5 5 6 6 5 6 5 8 10 10 10 10 10 10 9 9
4 4 4 4 5 5 4 5 5 5 6 6 6 6 6 6 7 6 7 7 7 7 6 7 6 6 5 4 5 5 5 4 5 5 4 6 8 10 11 11 11 10 10
5 4 5 5 5 5 4 4 5 6 6 6 6 7 7 6 6 6 7 6 7 7 6 6 7 6 6 4 5 5 6 5 5 5 5 5 6 6 8 11 11 10 10
4 4 5 5 5 4 1 3 6 6 6 6 6 6 7 7 6 7 8 8 8 8 8 7 7 7 7 7 6 6 6 6 6 4 5 5 5 5 5 6 7 10 10
4 4 5 5 5 3 1 4 6 7 6 6 5 6 7 5 6 7 7 9 9 9 9 9 8 8 8 7 7 8 7 7 7 5 5 6 5 5 5 4 6 8 10
4 4 4 4 4 3 2 4 6 7 7 6 6 6 7 6 6 6 8 8 8 7 8 8 7 8 7 7 7 8 8 8 8 6 6 7 6 6 5 4 8 9 10
3 4 4 4 4 4 2 3 6 6 6 6 6 6 6 6 4 5 7 8 7 7 6 6 7 7 7 8 8 7 7 7 7 6 5 6 6 6 6 6 6 10 11
4 4 4 4 5 5 2 2 5 6 5 6 5 5 4 5 4 4 6 7 7 7 6 6 6 7 8 8 9 9 8 7 6 5 4 5 6 5 5 5 4 5 8
Wind_Direction
149 151 150 202 221 214 208 219 222 212 223 216 219 219 224 223 231 234 189 180 195 209 219 221 219 216 216 216 219 223 224 224 222 222 222 224 226 225 225 225 224 223 222
178 232 217 221 234 234 240 241 233 223 223 221 222 227 232 226 219 226 226 204 201 207 216 222 224 224 220 217 219 221 223 224 224 224 224 225 228 228 229 226 226 227 226
212 229 237 230 233 238 233 236 238 237 225 221 224 231 234 229 222 226 229 235 221 206 209 218 225 226 223 222 221 221 223 225 224 222 223 225 226 229 230 229 229 229 226
225 233 239 234 237 242 251 241 235 236 234 231 230 237 239 225 224 225 232 235 240 235 209 208 220 222 222 225 223 222 223 224 222 222 224 226 226 226 228 228 228 226 226
238 243 241 246 242 239 248 255 243 246 242 244 240 234 243 233 226 225 237 238 233 239 240 206 211 217 220 221 221 223 225 223 221 224 225 226 227 226 226 230 231 229 229
243 251 239 227 241 240 241 238 236 240 253 260 269 272 263 253 236 228 237 234 232 239 240 241 225 210 207 214 221 226 228 225 222 224 225 225 227 227 226 229 232 232 232
250 249 263 233 240 244 245 237 234 235 242 278 290 294 265 233 230 228 240 250 247 241 237 236 243 246 218 205 213 224 229 231 226 225 225 227 228 229 231 231 232 232 234
251 237 238 244 234 237 230 231 225 254 257 158 275 277 255 225 217 236 240 238 253 253 241 236 241 241 255 242 204 206 220 229 230 228 228 228 229 232 234 234 235 236 237
265 267 244 251 246 243 228 232 236 241 244 224 227 269 265 264 280 229 236 243 249 262 261 254 246 241 247 251 234 209 213 225 231 231 230 229 231 232 234 236 237 237 236
265 261 250 240 246 256 242 242 230 239 236 241 219 239 270 290 269 279 247 245 249 255 262 260 255 240 242 246 236 231 216 226 229 232 234 235 235 235 235 236 238 237 234
261 260 249 250 247 258 256 253 240 247 242 247 250 241 241 243 248 262 277 276 263 260 262 261 263 257 249 246 243 230 212 226 226 233 239 241 241 238 236 237 238 235 233
256 271 268 277 274 272 257 244 239 233 247 250 255 249 245 254 264 266 271 277 280 275 261 261 261 259 253 249 244 208 214 221 226 232 239 241 241 239 237 237 237 236 234
274 293 291 282 283 273 255 248 232 238 239 242 246 251 252 254 263 269 274 282 286 286 268 253 254 258 260 256 244 214 226 224 226 231 234 236 237 237 239 239 238 238 238
279 295 281 273 272 272 261 250 247 237 234 240 244 253 259 259 259 257 266 278 280 280 267 263 263 259 268 264 250 223 240 215 223 228 232 235 235 235 238 240 240 239 238
258 261 270 269 267 259 258 261 260 257 252 250 250 242 251 258 257 261 261 264 267 278 279 268 265 262 260 259 243 246 249 216 216 224 227 231 234 236 239 241 241 240 237
259 264 266 266 261 255 250 255 258 259 260 262 263 264 262 265 264 257 259 264 262 264 274 277 275 281 281 269 232 251 252 220 214 218 221 223 227 230 232 234 235 235 236
243 249 255 258 258 259 255 252 258 256 259 261 261 259 260 268 271 265 259 261 261 262 267 277 277 276 271 272 267 264 260 254 232 207 214 220 224 227 227 229 230 231 232
245 245 249 250 253 253 253 254 259 260 260 259 261 264 267 264 262 265 265 262 262 259 262 275 281 276 269 267 266 266 265 261 263 208 208 217 221 223 225 227 227 225 228
243 250 248 248 253 256 258 262 263 261 259 261 263 263 267 267 265 267 264 264 266 264 264 268 274 275 272 268 270 267 269 270 266 230 210 215 217 220 223 223 222 222 225
238 244 247 250 253 254 258 266 262 261 260 260 262 265 267 264 263 264 259 257 262 266 262 263 269 269 266 261 262 269 270 259 263 262 255 242 223 218 220 217 216 219 223
237 241 247 250 253 253 261 269 265 261 264 265 265 267 266 265 271 272 274 274 271 267 266 265 267 272 272 271 268 268 270 268 257 257 256 249 237 236 223 216 214 219 223
238 240 245 248 250 258 294 284 276 268 265 264 268 271 269 257 255 254 263 271 272 266 270 269 267 269 272 272 270 267 267 267 269 250 256 260 256 258 247 239 202 203 217
240 243 248 251 253 263 270 274 277 273 268 270 270 273 274 271 260 264 257 250 253 252 256 262 270 273 274 272 271 265 262 264 269 270 268 268 260 261 256 238 183 198 213
250 249 249 253 253 253 235 263 274 265 268 267 266 268 271 279 275 280 275 269 266 260 254 255 266 271 274 277 268 266 266 257 259 254 249 264 260 257 254 238 189 202 215
244 248 247 250 254 259 239 261 278 268 267 268 268 268 272 274 291 294 276 272 270 267 252 249 260 260 264 261 262 262 260 257 262 260 244 259 267 270 261 247 216 203 214
242 247 247 247 251 258 229 248 276 269 273 276 269 259 255 278 291 277 271 271 272 278 283 275 257 245 246 238 233 245 254 259 263 265 247 253 263 265 266 254 251 225 222
Height
1548 1549 1549 1549 1550 1550 1550 1550 1550 1551 1551 1552 1554 1555 1556 1556 1557 1558 1558 1558 1558 1558 1559 1559 1560 1560 1560 1561 1561 1562 1562 1562 1562 1563 1563 1564 1564 1564 1565 1565 1566 1566 1567
1548 1548 1548 1548 1549 1549 1549 1549 1549 1550 1550 1551 1552 1553 1553 1554 1555 1555 1556 1556 1556 1557 1557 1557 1558 1558 1558 1559 1559 1559 1560 1560 1560 1560 1561 1561 1562 1562 1562 1563 1563 1564 1564
1547 1547 1547 1548 1548 1548 1548 1548 1548 1548 1549 1549 1550 1550 1551 1552 1553 1553 1554 1555 1555 1555 1555 1555 1555 1556 1556 1556 1556 1557 1557 1557 1558 1558 1559 1559 1559 1559 1560 1560 1561 1561 1562
1546 1546 1547 1547 1546 1547 1547 1547 1547 1547 1547 1548 1548 1549 1550 1550 1550 1551 1552 1553 1553 1554 1553 1553 1553 1553 1553 1553 1554 1554 1554 1555 1555 1555 1556 1556 1556 1556 1557 1557 1557 1558 1558
1545 1545 1545 1545 1545 1546 1546 1546 1546 1546 1546 1546 1547 1548 1548 1549 1549 1550 1550 1551 1551 1551 1551 1551 1550 1550 1550 1551 1551 1551 1551 1552 1552 1552 1553 1553 1553 1553 1554 1554 1554 1555 1555
1543 1543 1544 1543 1544 1545 1544 1545 1545 1545 1545 1545 1546 1546 1547 1547 1548 1548 1549 1549 1549 1549 1549 1549 1549 1548 1547 1548 1548 1548 1548 1549 1549 1549 1550 1550 1550 1550 1550 1551 1551 1551 1552
1542 1541 1542 1542 1542 1543 1543 1543 1544 1544 1544 1544 1544 1545 1545 1546 1546 1547 1547 1547 1547 1547 1546 1546 1546 1546 1546 1546 1545 1545 1545 1545 1546 1546 1546 1547 1547 1547 1547 1548 1548 1548 1549
1540 1540 1539 1540 1541 1541 1541 1541 1542 1542 1543 1542 1543 1544 1544 1546 1544 1545 1545 1545 1545 1545 1544 1544 1544 1543 1543 1544 1543 1542 1542 1542 1542 1542 1543 1543 1544 1544 1544 1544 1545 1545 1545
1538 1537 1537 1538 1538 1539 1540 1539 1540 1541 1541 1541 1542 1543 1543 1542 1543 1543 1543 1542 1542 1542 1542 1542 1541 1540 1540 1541 1540 1539 1538 1539 1539 1539 1540 1540 1540 1541 1541 1541 1541 1542 1542
1537 1536 1536 1536 1536 1537 1538 1538 1538 1538 1539 1540 1540 1540 1541 1541 1541 1541 1541 1541 1540 1539 1539 1539 1539 1538 1538 1537 1536 1535 1535 1535 1535 1535 1536 1537 1537 1537 1538 1538 1538 1538 1538
1536 1536 1535 1535 1535 1536 1536 1536 1536 1536 1537 1537 1538 1538 1539 1539 1539 1539 1538 1538 1538 1537 1537 1536 1536 1536 1535 1534 1533 1532 1531 1531 1531 1532 1532 1533 1533 1534 1534 1534 1535 1535 1535
1536 1535 1535 1534 1533 1534 1533 1533 1534 1534 1535 1535 1535 1536 1536 1536 1536 1537 1536 1535 1534 1534 1534 1533 1533 1532 1532 1531 1530 1528 1528 1527 1528 1528 1529 1529 1529 1530 1530 1531 1531 1531 1531
1535 1534 1533 1532 1532 1531 1531 1531 1532 1532 1532 1532 1532 1533 1533 1533 1534 1534 1534 1532 1531 1531 1530 1530 1530 1529 1529 1528 1526 1525 1525 1524 1525 1525 1525 1525 1525 1526 1526 1527 1527 1527 1527
1533 1532 1531 1530 1529 1529 1529 1529 1530 1530 1530 1530 1530 1529 1530 1531 1531 1531 1531 1530 1529 1528 1527 1527 1527 1526 1525 1525 1523 1522 1522 1521 1521 1521 1521 1521 1521 1521 1522 1522 1523 1523 1523
1530 1529 1529 1528 1527 1526 1526 1526 1527 1527 1527 1527 1527 1527 1527 1527 1528 1528 1528 1527 1527 1525 1524 1524 1523 1523 1522 1521 1520 1519 1518 1518 1517 1517 1517 1517 1517 1517 1517 1518 1518 1518 1518
1527 1527 1526 1526 1525 1524 1524 1524 1525 1524 1524 1524 1524 1524 1524 1524 1524 1524 1524 1524 1523 1523 1521 1520 1520 1520 1518 1518 1517 1516 1515 1514 1513 1513 1513 1513 1513 1513 1513 1513 1513 1513 1514
1525 1524 1524 1523 1523 1522 1522 1521 1522 1522 1522 1521 1521 1521 1520 1520 1520 1521 1520 1520 1520 1519 1518 1517 1517 1516 1514 1514 1513 1512 1512 1511 1510 1509 1509 1509 1509 1509 1509 1509 1509 1509 1509
1522 1522 1521 1521 1520 1520 1520 1519 1519 1518 1518 1518 1518 1517 1517 1517 1516 1516 1516 1516 1516 1515 1514 1513 1512 1512 1511 1510 1509 1508 1508 1508 1506 1505 1505 1504 1504 1504 1504 1504 1504 1504 1504
1519 1519 1519 1518 1518 1517 1517 1516 1516 1515 1515 1514 1514 1514 1513 1513 1512 1513 1512 1512 1512 1512 1510 1509 1508 1508 1507 1506 1505 1504 1504 1502 1502 1502 1501 1500 1500 1500 1499 1499 1499 1499 1499
1516 1516 1516 1515 1515 1515 1514 1513 1512 1512 1511 1511 1510 1510 1510 1509 1508 1508 1508 1507 1507 1507 1506 1505 1505 1504 1503 1502 1501 1501 1500 1499 1498 1498 1497 1497 1496 1495 1495 1494 1494 1494 1494
1513 1513 1512 1512 1511 1512 1511 1510 1509 1509 1508 1507 1506 1506 1506 1505 1504 1504 1504 1504 1503 1502 1502 1501 1501 1500 1499 1498 1498 1497 1496 1495 1494 1494 1493 1493 1492 1491 1490 1490 1489 1489 1489
1510 1510 1509 1508 1508 1508 1507 1506 1506 1505 1504 1504 1503 1502 1502 1502 1501 1500 1499 1499 1499 1498 1498 1497 1496 1495 1495 1494 1493 1493 1492 1491 1490 1490 1489 1489 1488 1487 1487 1486 1485 1485 1484
1506 1506 1506 1505 1505 1504 1503 1503 1503 1502 1501 1500 1499 1499 1499 1499 1497 1496 1495 1495 1494 1493 1493 1492 1491 1490 1490 1490 1489 1488 1487 1486 1486 1485 1485 1484 1484 1483 1482 1481 1480 1480 1479
1503 1503 1503 1502 1501 1501 1500 1500 1499 1498 1498 1497 1496 1495 1495 1494 1493 1492 1491 1490 1489 1488 1487 1487 1486 1485 1485 1484 1484 1484 1482 1481 1480 1480 1480 1480 1479 1479 1478 1477 1476 1475 1475
1500 1500 1499 1499 1498 1498 1497 1496 1496 1495 1494 1493 1492 1492 1491 1490 1489 1488 1487 1486 1485 1484 1483 1482 1481 1480 1479 1479 1479 1479 1478 1478 1477 1477 1476 1476 1475 1474 1474 1473 1472 1471 1470
1497 1497 1496 1496 1495 1495 1494 1493 1492 1492 1491 1490 1489 1488 1487 1486 1484 1483 1483 1482 1480 1480 1479 1478 1476 1475 1475 1474 1474 1474 1474 1474 1473 1473 1472 1472 1472 1471 1470 1469 1468 1467 1466